Regional Weather Roundup
Issued by NWS

Home | Current Version | Previous Version | Graphics & Text | Print | Product List | Glossary On
Versions: 1 2 3 4 5 6 7 8 9 10 11 12 13 14 15 16 17 18 19 20 21 22 23 24 25 26 27 28 29 30 31 32 33 34 35 36 37 38 39 40 41 42 43 44 45 46 47 48 49 50
000
ASUS43 KFSD 302210
RWRSD

WEATHER ROUNDUP FOR SOUTH DAKOTA
NATIONAL WEATHER SERVICE SIOUX FALLS SD
500 PM CDT SUN APR 30 2017

NOTE: "FAIR" INDICATES FEW OR NO CLOUDS BELOW 12,000 FEET WITH NO
SIGNIFICANT WEATHER AND/OR OBSTRUCTIONS TO VISIBILITY.


SDZ001>005-009-010-012>017-302300-
NORTHWEST AND NORTH CENTRAL SOUTH DAKOTA

CITY           SKY/WX    TMP DP  RH WIND       PRES   REMARKS
BUFFALO          N/A     61  19  19 SW7       29.83F
FAITH            N/A     61  21  21 N10       29.86F
MOBRIDGE       CLOUDY    63  18  17 NE12      29.84F
$$

SDZ012>016-024>037-041>051-057-063-072>074-302300-
SOUTHWEST AND SOUTH CENTRAL SOUTH DAKOTA

CITY           SKY/WX    TMP DP  RH WIND       PRES   REMARKS
RAPID CTY ARPT SUNNY     60  21  22 N13       29.86F
PIERRE         CLOUDY    57  20  23 NE17      29.83F
CUSTER         SUNNY     53  17  24 NE9       29.87F
ELLSWORTH AFB  SUNNY     59  17  19 N9        29.87F
PHILIP         CLOUDY    60  22  23 N10G21    29.85F
PINE RIDGE     MOSUNNY   58  21  24 N23       29.85F
SPEARFISH      FAIR      55  18  22 VRB5G13   29.90F
WINNER         FAIR      51  22  31 NE16      29.80F
$$

SDZ004>011-016>023-039-040-302300-
NORTHEAST SOUTH DAKOTA

CITY           SKY/WX    TMP DP  RH WIND       PRES   REMARKS
ABERDEEN       CLOUDY    57  15  19 NE17G28   29.85F
WATERTOWN      CLOUDY    47  29  49 NE23G30   29.79F
BROOKINGS      LGT RAIN  41  36  82 NE21G29   29.73F
SISSETON         N/A     53  26  35 E12       29.84F
$$

SDZ017-020-022-023-036>040-048>070-302300-
SOUTHEAST SOUTH DAKOTA

CITY           SKY/WX    TMP DP  RH WIND       PRES   REMARKS
SIOUX FALLS    RAIN      40  40 100 NE24G31   29.72S FOG
HURON          CLOUDY    50  22  33 NE16      29.80F
CHAMBERLAIN    CLOUDY    52  24  33 N12G18    29.81S
MITCHELL       LGT RAIN  40  36  86 N13       29.80S FOG
YANKTON        CLOUDY    41  37  87 NE16G23   29.71F
$$

ABBREVIATIONS USED IN REMARKS
   TC - TEMPERATURE IN CELSIUS
  WCI - WIND CHILL INDEX
   HX - HEAT INDEX
  VSB - VISIBILITY




USA.gov is the U.S. government's official web portal to all federal, state and local government web resources and services.